Location: Haulchin
(50.3172°N, 3.4360°E)
Time: 13:54:13
(UTC+00:00)

Cosmos 2219 Rocket - Pass Details

Date: 23 May 2024
Orbit: 826 x 846 km, 71.0° (Epoch: 16 June)

Event Time Altitude Azimuth Distance (km) Brightness Sun altitude
Rises 01:47:44 0° 332° (NNW) 3,398 5.8 -13.9°
Reaches altitude 10° 01:50:17 10° 338° (NNW) 2,463 5.2 -13.7°
Maximum altitude 01:55:45 48° 53° (NE) 1,100 3.3 -13.2°
Drops below altitude 10° 02:01:11 10° 127° (SE) 2,462 4.6 -12.8°
Sets 02:03:44 0° 133° (SE) 3,395 5.2 -12.5°
